Tracking 29493 objects as of 9-Sep-2024
HD Live streaming from Space Station
objects crossing your sky now

FENGYUN 1C DEB

Track FENGYUN 1C DEB now!
10-day predictions


NORAD ID: 40688
Int'l Code: 1999-025EWU
Perigee: 855.8 km
Apogee: 1,065.4 km
Inclination: 98.9 °
Period: 104.1 minutes
Semi major axis: 7331 km
RCS: Unknown
Launch date: May 10, 1999
Source: People's Republic of China (PRC)
Launch site: Taiyaun Space Center, China (TSC)

Note: This is SATELLITE DEBRIS
Your satellite tracking list
Your tracking list is empty




NASA's NSSDC Master Catalog

Two Line Element Set (TLE):
1 40688U 99025EWU 24232.24607371  .00001235  00000-0  10814-2 0  9991
2 40688  98.9228  39.1428 0142916 245.2354 113.3874 13.82951024232730
Source of the keplerian elements: AFSPC